Unalakleet, AK

9:06 AM AKDT on June 29, 2017 (GMT -0800)
Unalakleet

Weather History for PAUN - September, 2013

Change the Weather History Date:

Tuesday, September 17, 2013

  Actual Average Record
Temperature  
Mean Temperature 35 °F -  
Max Temperature 44 °F 50 °F 64 °F (1969)
Min Temperature 26 °F 36 °F 21 °F (1981)
Degree Days  
Heating Degree Days 30    
Moisture  
Dew Point 28 °F    
Average Humidity 72    
Maximum Humidity 86    
Minimum Humidity 57    
Precipitation  
Precipitation 0.00 in - - ()
Sea Level Pressure  
Sea Level Pressure 29.82 in    
Wind  
Wind Speed 7 mph (NNE)    
Max Wind Speed 22 mph    
Max Gust Speed 26 mph    
Visibility 10 miles    
Events      
Averages and records for this station are not official NWS values.
T = Trace of Precipitation, MM = Missing Value Source: NWS Daily Summary

Daily Weather History Graph

Daily Weather History Graph

Search for Another Location

Airport or City:

Trip Planner

Search our weather history database for the weather conditions in past years. The results will help you decide how hot, cold, wet, or windy it might be!

Date:

Astronomy

Sep. 17, 2013 Rise Set
Actual Time 8:13 AM AKDT 8:59 PM AKDT
Civil Twilight 7:25 AM AKDT 9:47 PM AKDT
Nautical Twilight 6:25 AM AKDT 10:47 PM AKDT
Astronomical Twilight 5:14 AM AKDT 11:57 PM AKDT
Moon 8:04 PM AKDT (9/17) 5:57 AM AKDT (9/17)
Length of Visible Light 14h 22m
Length of Day
12h 46m
Waxing Gibbous, 96% of the Moon is Illuminated
Sep 17
Waxing Gibbous
Sep 19
Full
Sep 26
Last Quarter
Oct 4
New
Oct 11
First Quarter

Hourly Weather History & Observations

Time (AKDT) Temp. Windchill Dew Point Humidity Pressure Visibility Wind Dir Wind Speed Gust Speed Precip Events Conditions
12:16 AM 41.0 °F - 26.6 °F 57% 29.83 in 10.0 mi Calm Calm - N/A   Clear
12:36 AM 35.6 °F 31.7 °F 28.4 °F 75% 29.83 in 10.0 mi East 4.6 mph - N/A   Clear
12:56 AM 37.4 °F - 24.8 °F 60% 29.83 in 10.0 mi Calm Calm - N/A   Clear
1:16 AM 37.4 °F 32.8 °F 26.6 °F 65% 29.83 in 10.0 mi SE 5.8 mph - N/A   Clear
1:36 AM 37.4 °F 32.1 °F 26.6 °F 65% 29.83 in 10.0 mi SE 6.9 mph - N/A   Clear
1:56 AM 33.8 °F 27.7 °F 26.6 °F 75% 29.83 in 10.0 mi SSE 6.9 mph - N/A   Clear
2:16 AM 32.0 °F - 26.6 °F 80% 29.83 in 10.0 mi Calm Calm - N/A   Clear
2:36 AM 32.0 °F - 26.6 °F 80% 29.83 in 10.0 mi Calm Calm - N/A   Clear
2:56 AM 32.0 °F 28.7 °F 26.6 °F 80% 29.83 in 10.0 mi SE 3.5 mph - N/A   Clear
3:16 AM 30.2 °F 25.4 °F 26.6 °F 86% 29.83 in 10.0 mi ESE 4.6 mph - N/A   Clear
3:36 AM 30.2 °F 25.4 °F 24.8 °F 80% 29.83 in 10.0 mi ESE 4.6 mph - N/A   Clear
3:56 AM 30.2 °F 26.7 °F 24.8 °F 80% 29.82 in 10.0 mi SE 3.5 mph - N/A   Clear
4:16 AM 30.2 °F 24.3 °F 24.8 °F 80% 29.82 in 10.0 mi SE 5.8 mph - N/A   Clear
4:36 AM 28.4 °F 23.3 °F 24.8 °F 86% 29.83 in 10.0 mi SE 4.6 mph - N/A   Clear
4:56 AM 30.2 °F 24.3 °F 23.0 °F 75% 29.83 in 10.0 mi SE 5.8 mph - N/A   Clear
5:16 AM 28.4 °F 24.6 °F 23.0 °F 80% 29.83 in 10.0 mi SE 3.5 mph - N/A   Clear
5:36 AM 28.4 °F 24.6 °F 24.8 °F 86% 29.83 in 10.0 mi ESE 3.5 mph - N/A   Clear
5:56 AM 28.4 °F 23.3 °F 23.0 °F 80% 29.82 in 10.0 mi SE 4.6 mph - N/A   Clear
6:16 AM 28.4 °F 24.6 °F 23.0 °F 80% 29.82 in 10.0 mi SE 3.5 mph - N/A   Clear
6:36 AM 28.4 °F 23.3 °F 24.8 °F 86% 29.82 in 10.0 mi SSE 4.6 mph - N/A   Clear
6:56 AM 28.4 °F 22.2 °F 24.8 °F 86% 29.82 in 10.0 mi SSE 5.8 mph - N/A   Clear
7:16 AM 28.4 °F 22.2 °F 24.8 °F 86% 29.82 in 10.0 mi SE 5.8 mph - N/A   Clear
7:36 AM 28.4 °F - 24.8 °F 86% 29.83 in 10.0 mi Calm Calm - N/A   Clear
7:56 AM 28.4 °F - 24.8 °F 86% 29.82 in 10.0 mi Calm Calm - N/A   Clear
8:16 AM 28.4 °F - 24.8 °F 86% 29.82 in 10.0 mi Calm Calm - N/A   Clear
8:36 AM 28.4 °F 22.2 °F 21.2 °F 74% 29.82 in 10.0 mi SE 5.8 mph - N/A   Clear
8:56 AM 26.6 °F 20.0 °F 23.0 °F 86% 29.82 in 10.0 mi ESE 5.8 mph - N/A   Clear
9:16 AM 30.2 °F 25.4 °F 24.8 °F 80% 29.82 in 10.0 mi ESE 4.6 mph - N/A   Clear
9:36 AM 30.2 °F - 24.8 °F 80% 29.82 in 10.0 mi Calm Calm - N/A   Clear
9:56 AM 32.0 °F 28.7 °F 26.6 °F 80% 29.83 in 10.0 mi SSE 3.5 mph - N/A   Clear
10:16 AM 33.8 °F 30.8 °F 26.6 °F 75% 29.82 in 10.0 mi SSE 3.5 mph - N/A   Clear
10:36 AM 33.8 °F 30.8 °F 26.6 °F 75% 29.82 in 10.0 mi SSE 3.5 mph - N/A   Clear
10:56 AM 35.6 °F 32.8 °F 28.4 °F 75% 29.82 in 7.0 mi SE 3.5 mph - N/A   Clear
11:16 AM 37.4 °F 34.9 °F 28.4 °F 70% 29.82 in 10.0 mi SSE 3.5 mph - N/A   Clear
11:36 AM 39.2 °F 35.0 °F 28.4 °F 65% 29.82 in 10.0 mi SSW 5.8 mph - N/A   Clear
11:56 AM 41.0 °F - 30.2 °F 65% 29.82 in 10.0 mi Calm Calm - N/A   Clear
12:16 PM 42.8 °F 38.6 °F 30.2 °F 61% 29.82 in 10.0 mi NW 6.9 mph - N/A   Clear
12:36 PM 42.8 °F 35.4 °F 33.8 °F 70% 29.81 in 10.0 mi NNW 15.0 mph - N/A   Clear
12:56 PM 42.8 °F 34.8 °F 33.8 °F 70% 29.81 in 10.0 mi NNW 17.3 mph - N/A   Clear
1:16 PM 42.8 °F 34.8 °F 33.8 °F 70% 29.81 in 10.0 mi NNW 17.3 mph - N/A   Clear
1:36 PM 44.6 °F 37.2 °F 35.6 °F 71% 29.80 in 10.0 mi NNW 17.3 mph - N/A   Clear
1:56 PM 44.6 °F 36.9 °F 35.6 °F 71% 29.80 in 10.0 mi NNW 18.4 mph - N/A   Clear
2:16 PM 44.6 °F 36.6 °F 35.6 °F 71% 29.80 in 10.0 mi NNW 19.6 mph - N/A   Clear
2:36 PM 44.6 °F 36.4 °F 35.6 °F 71% 29.80 in 10.0 mi NNW 20.7 mph - N/A   Clear
2:56 PM 44.6 °F 36.1 °F 35.6 °F 71% 29.80 in 10.0 mi NNW 21.9 mph - N/A   Clear
3:16 PM 44.6 °F 36.4 °F 35.6 °F 71% 29.80 in 10.0 mi NNW 20.7 mph 24.2 mph N/A   Clear
3:36 PM 44.6 °F 36.6 °F 35.6 °F 71% 29.80 in 10.0 mi NNW 19.6 mph - N/A   Clear
3:56 PM 44.6 °F 36.4 °F 35.6 °F 71% 29.80 in 10.0 mi NNW 20.7 mph - N/A   Clear
4:16 PM 44.6 °F 36.9 °F 35.6 °F 71% 29.79 in 10.0 mi NNW 18.4 mph 25.3 mph N/A   Clear
4:36 PM 44.6 °F 36.4 °F 35.6 °F 71% 29.79 in 10.0 mi NW 20.7 mph 26.5 mph N/A   Clear
4:56 PM 44.6 °F 36.4 °F 33.8 °F 66% 29.79 in 10.0 mi NNW 20.7 mph - N/A   Clear
5:16 PM 44.6 °F 36.9 °F 33.8 °F 66% 29.79 in 10.0 mi NNW 18.4 mph - N/A   Clear
5:36 PM 44.6 °F 37.2 °F 32.0 °F 61% 29.79 in 10.0 mi NNW 17.3 mph 26.5 mph N/A   Clear
5:56 PM 44.6 °F 37.8 °F 30.2 °F 57% 29.79 in 10.0 mi North 15.0 mph - N/A   Clear
6:16 PM 44.6 °F 36.9 °F 32.0 °F 61% 29.79 in 10.0 mi NNW 18.4 mph - N/A   Clear
6:36 PM 44.6 °F 37.2 °F 30.2 °F 57% 29.79 in 10.0 mi North 17.3 mph 21.9 mph N/A   Clear
6:56 PM 42.8 °F 34.5 °F 28.4 °F 57% 29.80 in 10.0 mi NNW 18.4 mph - N/A   Clear
7:16 PM 42.8 °F 34.8 °F 30.2 °F 61% 29.80 in 10.0 mi North 17.3 mph 23.0 mph N/A   Clear
7:36 PM 42.8 °F 34.3 °F 28.4 °F 57% 29.80 in 10.0 mi North 19.6 mph 26.5 mph N/A   Clear
7:56 PM 41.0 °F 32.2 °F 28.4 °F 61% 29.80 in 10.0 mi NNW 18.4 mph - N/A   Clear
8:16 PM 39.2 °F 31.2 °F 28.4 °F 65% 29.81 in 10.0 mi NNW 13.8 mph - N/A   Clear
8:36 PM 37.4 °F 30.3 °F 26.6 °F 65% 29.82 in 10.0 mi North 10.4 mph - N/A   Clear
8:56 PM 37.4 °F 30.3 °F 26.6 °F 65% 29.82 in 10.0 mi North 10.4 mph - N/A   Clear
9:16 PM 35.6 °F 28.6 °F 26.6 °F 70% 29.83 in 10.0 mi NNW 9.2 mph - N/A   Clear
9:36 PM 35.6 °F 28.0 °F 26.6 °F 70% 29.83 in 10.0 mi North 10.4 mph - N/A   Clear
9:56 PM 35.6 °F 28.6 °F 24.8 °F 65% 29.84 in 10.0 mi North 9.2 mph - N/A   Clear
10:16 PM 35.6 °F 27.1 °F 24.8 °F 65% 29.84 in 10.0 mi North 12.7 mph - N/A   Clear
10:36 PM 33.8 °F 26.4 °F 24.8 °F 70% 29.84 in 10.0 mi NNW 9.2 mph - N/A   Clear
10:56 PM 33.8 °F 25.3 °F 24.8 °F 70% 29.84 in 10.0 mi NNW 11.5 mph - N/A   Partly Cloudy
11:16 PM 33.8 °F 25.8 °F 24.8 °F 70% 29.85 in 10.0 mi North 10.4 mph 17.3 mph N/A   Partly Cloudy
11:36 PM 33.8 °F 26.4 °F 24.8 °F 70% 29.85 in 10.0 mi North 9.2 mph - N/A   Partly Cloudy
11:56 PM 32.0 °F 24.8 °F 24.8 °F 75% 29.85 in 10.0 mi NNW 8.1 mph - N/A   Clear